Cloud_Cover
32 44 76 92 92 92 64 68 88 92 92 92 92 92 92 88 76 76 68 80 92 92 92 92 92 92 92 92 92 92 92 92 92 92 92 92 92 92 92 92 92 88 92 92 92 92 92 92 92 92 92 92 92 92 92 92 92 92 92 92 92 92 92 92 88 64 56 48 48 44 32 32 36 44 32 24 20 12 8 8 8 8 8 0 0 0 0 0 0 0 0 0 8 8 8 8 8 8 8 8 8 8 8
36 56 88 80 64 56 64 76 92 92 92 88 88 92 92 88 80 88 88 92 92 92 92 92 92 92 92 92 92 92 92 92 92 92 92 92 92 92 92 92 92 88 88 88 92 88 88 88 92 92 88 92 92 92 92 92 92 92 92 92 92 92 88 80 68 48 44 44 36 32 36 36 44 44 32 24 20 12 12 8 8 8 8 8 0 0 0 0 0 0 0 8 8 8 8 8 8 8 8 8 8 8 8
56 88 92 80 68 76 88 92 92 92 92 92 92 92 92 92 92 92 92 92 92 92 92 92 92 92 92 92 92 92 92 88 80 88 92 92 88 80 88 92 92 92 92 92 92 92 92 92 92 92 92 92 92 92 92 92 92 92 92 92 92 92 80 76 68 56 44 36 32 32 44 48 48 44 36 32 24 20 20 12 12 12 12 8 8 0 0 0 8 8 8 8 8 8 8 8 8 8 8 8 8 8 8
68 92 92 80 76 68 88 92 92 92 88 92 92 92 92 92 92 92 92 92 92 92 92 92 92 92 92 92 92 92 92 80 76 68 88 92 88 80 92 92 92 92 92 92 92 92 80 88 88 92 88 88 92 92 92 92 92 92 92 92 88 88 76 68 64 56 36 44 48 56 56 56 48 44 36 24 20 24 24 20 20 20 12 12 8 8 8 8 8 8 8 8 8 8 8 8 8 8 8 8 8 8 8
64 92 92 68 64 92 92 92 92 92 88 88 92 92 92 92 92 92 92 92 92 92 92 92 92 92 92 92 92 92 92 88 76 68 88 92 92 88 92 92 100 100 92 92 92 92 88 88 92 92 92 92 92 92 92 92 92 92 92 92 88 88 68 64 56 56 64 64 68 68 64 56 48 44 36 32 32 32 32 24 24 20 12 12 12 8 8 12 12 12 8 8 8 8 8 8 8 8 8 8 8 8 8
56 92 92 80 80 92 92 92 92 92 92 92 92 92 92 92 92 92 92 92 92 100 92 92 92 92 92 92 92 92 92 88 76 68 68 80 88 88 92 92 100 100 92 92 92 88 88 88 92 92 92 92 92 92 92 92 92 88 88 92 92 80 68 56 48 48 68 76 76 68 56 48 44 44 32 32 36 32 36 32 20 12 12 12 12 8 8 8 8 12 12 8 8 8 8 8 8 8 8 8 8 12 12
64 92 92 76 68 92 92 92 92 92 92 92 92 92 92 92 92 92 92 92 92 100 92 92 92 92 92 92 92 92 92 92 80 76 80 88 92 92 92 92 92 100 92 92 88 88 88 92 92 92 92 92 92 92 92 92 92 80 88 92 88 80 68 64 64 68 80 80 76 68 56 48 44 36 36 36 44 44 36 32 24 20 20 12 12 12 8 8 8 12 12 12 8 8 8 8 8 8 8 12 12 20 12
80 92 92 92 92 92 92 92 92 92 92 92 92 92 92 92 92 92 92 92 92 92 92 92 92 92 92 92 92 92 92 92 92 92 92 92 92 92 92 92 92 92 92 92 92 92 92 92 92 92 92 92 92 92 92 88 80 92 92 92 92 88 76 76 76 80 80 80 76 68 64 48 44 44 48 48 48 44 36 32 24 24 20 12 12 12 12 12 20 20 12 12 8 8 8 8 12 12 12 20 20 20 20
80 88 92 92 92 92 92 92 92 92 92 92 92 92 92 92 92 92 92 92 92 92 92 92 92 92 88 88 92 92 92 92 92 92 92 100 92 92 92 92 92 92 92 92 92 92 92 92 92 92 92 92 92 92 92 88 80 92 92 92 92 88 80 80 80 80 80 80 76 68 64 56 56 64 56 56 48 36 32 32 32 24 20 20 20 20 20 20 12 12 12 12 12 20 20 20 12 20 20 20 20 20 20
80 88 92 92 92 92 92 92 92 92 92 92 92 92 92 92 92 92 92 92 92 92 92 92 92 88 88 92 92 88 88 88 92 92 92 92 92 92 92 92 92 92 92 92 92 92 92 92 92 92 92 92 92 92 88 88 88 92 92 92 92 88 80 80 80 80 88 80 76 68 64 68 68 64 64 56 48 36 36 36 36 32 24 24 24 24 20 20 12 12 12 20 24 24 20 20 20 20 20 24 24 20 20
68 76 88 92 92 92 92 92 92 92 92 92 92 92 92 92 92 92 92 92 92 92 92 92 92 92 92 92 88 80 88 92 92 92 92 92 92 92 92 92 92 92 92 92 92 88 92 92 92 92 92 92 88 80 88 88 88 92 92 92 92 92 88 80 80 92 88 88 80 76 76 68 68 68 64 56 48 44 44 36 36 32 32 32 32 24 24 24 24 24 24 24 20 20 20 24 24 24 24 20 20 20 12
68 76 88 92 92 92 92 92 92 92 92 92 92 92 92 92 92 92 92 92 92 92 92 92 92 92 92 92 92 92 92 92 92 92 92 92 92 92 92 92 92 92 92 92 92 92 92 92 92 92 92 92 92 88 92 92 92 92 92 88 88 88 92 92 92 92 92 88 88 80 76 76 68 68 64 56 56 44 44 36 36 36 36 36 36 36 32 24 24 24 24 24 20 24 24 24 24 24 20 20 20 20 12
68 80 88 92 92 92 92 92 92 92 92 92 92 92 92 92 92 92 92 92 92 92 92 92 92 92 92 92 92 92 92 92 92 92 92 92 92 92 92 92 92 92 92 92 92 92 92 92 92 92 92 92 92 92 92 92 92 92 92 92 92 92 92 92 92 92 92 88 80 76 76 76 76 68 64 56 56 44 44 36 36 32 36 44 36 32 24 24 20 24 24 24 24 24 24 24 24 20 12 12 12 12 12
68 68 88 92 92 88 92 92 92 92 92 92 92 92 92 92 92 92 92 92 92 92 92 92 92 92 92 92 92 92 92 92 92 92 92 92 92 92 92 92 92 92 92 92 92 92 92 92 92 92 92 92 92 92 92 92 92 92 92 92 92 92 92 92 92 92 92 88 80 76 76 76 68 64 64 56 48 44 36 36 32 24 44 44 36 24 20 20 20 20 24 24 24 24 24 24 20 12 12 8 8 8 8
76 76 88 92 92 92 92 92 92 92 92 92 92 92 92 92 92 92 92 92 92 92 92 92 92 92 92 92 92 92 92 92 92 92 92 92 92 92 92 92 92 92 92 92 92 92 92 92 92 92 92 92 92 92 92 92 92 92 92 92 92 92 92 92 92 92 88 80 76 76 68 68 64 56 48 44 36 36 32 36 36 36 44 36 24 20 20 20 20 24 24 24 24 24 20 20 12 12 12 12 12 8 8
88 80 80 88 88 92 92 92 92 92 92 92 92 92 92 92 92 92 92 92 92 92 92 92 92 92 92 88 88 92 92 92 92 92 92 92 92 92 92 92 92 92 92 92 92 92 92 92 92 92 92 92 92 92 92 92 92 92 92 92 92 92 92 92 92 92 88 80 76 76 68 64 64 48 44 36 36 36 36 36 44 44 36 32 20 20 20 20 24 24 24 24 24 20 20 12 12 12 12 12 12 12 8
92 80 80 88 92 92 92 92 92 92 92 92 92 92 92 92 92 92 92 92 92 92 92 92 92 92 88 88 88 88 92 92 92 92 92 92 92 88 88 88 88 92 92 92 88 80 88 88 92 92 92 92 92 92 92 92 92 92 92 92 92 92 92 88 88 88 88 80 76 68 64 56 56 48 36 36 32 32 36 44 44 36 32 24 20 20 20 24 24 24 24 24 20 20 20 12 12 12 12 12 12 8 8
92 88 80 88 88 92 92 92 92 92 92 92 92 92 92 92 92 92 92 92 92 92 92 92 92 92 88 88 88 88 88 92 92 92 92 92 92 92 88 88 92 92 92 88 88 88 88 88 88 88 88 92 92 92 92 92 92 92 92 92 92 92 88 88 88 88 80 80 68 64 56 48 48 48 36 32 32 32 36 36 36 32 24 24 24 20 24 24 24 24 24 20 20 20 12 12 12 12 12 12 12 8 12
92 88 80 80 88 92 88 88 88 88 92 92 92 92 92 92 92 92 92 92 92 92 92 92 92 92 88 88 88 88 92 92 92 92 92 92 92 92 88 88 92 92 92 92 92 92 92 88 88 88 88 92 92 92 92 92 92 92 92 88 88 88 88 88 88 80 76 68 64 56 48 48 44 36 32 24 32 36 44 36 32 32 32 32 24 24 24 24 24 24 24 20 20 12 12 12 12 12 12 12 12 12 12
88 80 76 80 88 88 88 88 88 88 88 92 92 92 92 92 92 92 92 92 92 92 92 92 92 92 92 92 92 92 92 92 92 92 92 92 92 92 92 92 92 92 88 88 92 92 92 88 92 88 92 92 92 92 92 92 92 92 88 88 88 88 88 88 80 80 76 68 64 48 48 36 32 24 24 32 36 44 44 36 36 32 32 24 24 24 24 24 24 24 20 20 20 20 20 20 20 12 12 12 12 12 12
76 76 76 76 80 80 80 80 88 88 88 88 92 92 92 92 92 92 92 92 92 92 92 92 92 92 92 92 92 92 92 92 92 92 92 92 92 92 92 92 92 92 92 92 92 92 92 92 92 92 92 92 92 88 88 88 88 88 88 88 88 88 88 88 80 76 68 64 56 44 36 32 24 24 32 36 44 44 36 36 36 32 32 24 24 24 24 24 24 20 20 20 20 20 20 20 20 20 20 20 20 20 20
68 76 68 68 68 68 76 76 76 80 80 88 92 92 92 92 92 92 92 88 92 92 92 92 92 92 92 92 92 92 92 92 92 92 92 92 92 92 92 92 92 92 92 92 92 92 92 88 80 76 76 76 68 68 76 76 80 88 88 88 88 88 88 80 76 64 56 48 44 32 24 24 32 32 44 44 44 36 36 32 32 32 32 32 32 24 24 24 20 20 20 20 20 20 20 20 20 20 20 20 20 20 20
64 80 68 64 64 56 64 68 68 76 76 80 88 88 92 92 92 92 92 92 88 92 92 92 92 92 92 92 92 92 92 92 92 92 92 92 92 88 88 92 92 92 92 88 88 88 80 76 64 64 64 64 68 76 76 80 80 88 88 88 88 88 80 68 64 56 48 44 32 24 24 24 36 44 44 44 36 36 32 32 32 32 32 32 24 24 20 20 20 24 24 24 24 20 20 20 20 20 20 20 20 20 20
64 68 68 68 68 64 64 68 68 64 68 76 80 80 88 92 92 92 92 92 92 92 88 88 92 92 92 92 92 92 92 92 92 92 92 92 88 80 88 88 88 88 88 88 88 80 80 76 68 76 76 76 80 80 80 88 88 88 88 88 88 80 76 64 48 48 36 36 36 24 24 32 36 36 36 36 32 32 32 32 32 32 24 24 20 20 20 20 24 24 24 20 20 20 20 20 20 20 20 20 20 20 12
64 56 68 68 68 64 68 68 68 48 64 76 76 76 76 88 92 92 92 92 92 92 92 88 88 88 92 92 92 92 92 92 92 88 88 88 88 88 80 80 88 88 88 88 88 80 80 80 80 80 80 80 88 88 88 88 88 88 88 88 80 76 76 64 48 36 36 36 36 32 36 36 44 36 36 32 32 32 32 32 32 24 20 20 20 20 20 24 24 20 20 20 20 20 20 20 20 20 20 20 20 12 12
48 48 64 64 64 64 68 68 68 56 64 68 68 68 68 80 92 92 92 92 92 92 92 92 92 92 88 88 88 88 88 88 80 68 76 80 88 88 88 80 80 80 80 80 80 80 80 88 88 88 88 88 88 88 88 88 88 88 88 80 76 68 68 56 48 36 36 44 44 36 44 44 44 36 36 32 32 32 24 24 20 20 12 12 20 20 24 24 24 20 20 20 20 20 20 20 20 20 20 12 12 12 12
36 48 56 56 56 56 64 68 68 64 64 64 64 64 64 68 76 88 92 92 88 80 88 92 92 92 76 68 68 76 88 88 80 56 68 76 76 80 80 80 88 88 88 88 88 88 88 88 88 88 88 88 88 88 88 80 80 80 80 76 68 64 64 56 48 44 48 48 56 56 48 44 36 32 32 32 32 24 20 20 12 12 12 20 24 24 24 24 20 20 20 20 20 20 20 20 20 12 12 12 12 12 8
36 48 56 56 56 48 56 64 64 56 64 64 64 56 48 56 64 80 80 88 88 88 80 80 80 88 76 64 56 68 80 80 76 48 64 68 68 76 76 80 88 88 88 88 92 92 88 88 88 88 88 88 80 76 76 76 76 76 68 68 64 64 64 56 48 56 56 56 56 56 48 36 32 32 32 24 24 20 12 12 12 12 20 24 24 20 20 20 20 20 20 20 20 20 20 20 12 12 12 12 8 8 8
12 32 44 44 44 36 44 48 56 56 64 64 64 56 44 44 48 56 68 76 80 80 76 76 68 76 76 68 64 68 76 68 64 64 68 68 76 80 80 88 88 88 88 88 88 88 88 88 88 88 88 76 68 68 68 68 68 68 64 64 64 64 64 56 56 56 56 48 48 44 32 32 32 24 24 20 20 12 12 20 20 24 24 24 24 20 20 20 20 20 20 20 20 12 12 12 12 12 12 12 20 12 12
12 24 32 32 32 32 36 44 48 48 56 56 64 56 48 36 36 48 64 76 80 76 68 68 64 64 76 80 80 88 80 68 64 76 76 76 76 76 80 88 88 88 88 88 88 88 88 80 68 64 56 56 64 64 64 64 64 64 56 48 48 64 64 56 56 44 36 36 32 32 32 32 24 24 20 20 20 20 20 24 24 24 20 20 20 20 20 20 20 20 20 20 12 12 12 12 12 12 24 24 20 20 20
32 36 32 24 24 36 44 36 36 44 64 64 64 64 48 36 32 36 56 64 68 76 68 68 76 76 76 80 80 88 88 80 76 76 64 56 56 56 56 64 76 76 68 64 64 56 56 48 48 48 48 56 56 64 64 56 56 48 44 48 56 56 48 44 36 32 32 32 32 32 32 24 24 20 20 20 24 24 24 24 20 20 20 20 20 20 20 20 20 20 20 12 12 20 20 20 24 24 24 24 24 20 24
32 36 24 20 20 24 32 36 44 32 56 64 68 64 64 48 36 44 48 56 64 68 68 68 68 68 68 68 76 76 64 56 56 56 48 48 48 56 48 56 56 68 64 64 64 48 44 44 44 48 48 48 48 56 48 44 44 36 44 44 36 36 32 32 32 32 32 32 32 32 32 24 24 24 24 24 24 24 24 20 20 20 20 20 20 20 20 20 12 12 20 20 20 20 24 24 20 20 24 12 20 44 44
12 12 12 12 12 12 20 32 44 44 44 48 64 56 64 56 44 32 44 48 56 64 64 64 64 64 64 64 64 64 68 68 68 68 68 68 64 64 64 64 64 56 56 48 44 44 44 44 44 44 56 48 44 36 36 32 36 44 36 32 32 24 32 32 32 32 32 32 32 32 32 32 32 24 24 24 20 20 20 20 12 12 20 20 20 20 12 12 12 12 20 20 20 20 20 12 12 12 8 8 20 44 48
12 12 12 12 12 20 20 24 36 32 36 44 44 56 48 44 36 32 32 36 36 44 48 48 56 48 48 48 48 48 56 56 56 56 56 48 48 48 48 48 44 44 44 44 44 48 48 48 48 48 48 48 48 44 36 36 36 36 32 32 32 32 32 32 32 32 32 32 32 32 24 24 24 24 20 20 20 12 12 12 12 12 12 12 12 12 12 12 20 24 24 24 24 24 20 12 8 8 8 8 12 24 32
12 12 12 20 20 20 20 20 24 32 36 36 36 44 44 36 32 36 32 32 32 32 36 44 48 48 48 48 44 44 48 44 44 44 44 36 36 36 36 36 36 36 36 36 44 44 44 44 44 44 44 44 36 36 36 36 36 44 36 36 32 32 32 32 32 32 24 24 24 24 24 24 20 20 12 12 12 12 12 12 12 12 12 12 12 12 20 24 24 32 32 32 32 32 24 20 12 12 12 20 20 24 32
12 12 12 12 12 12 12 20 20 32 32 32 36 32 32 24 24 24 32 36 36 36 32 36 48 48 48 44 44 44 44 44 44 36 36 32 32 36 36 36 36 36 36 36 36 36 36 36 36 36 36 36 36 36 36 36 36 36 36 32 32 32 32 24 24 24 24 24 24 24 20 20 20 12 12 8 8 8 12 12 12 12 12 12 20 24 24 24 32 36 36 36 32 32 24 24 20 12 32 36 36 44 48
8 12 12 12 12 12 12 12 20 20 24 32 32 24 24 24 24 24 24 32 36 48 44 44 44 44 44 44 44 44 44 44 36 36 32 32 32 32 32 32 32 32 36 36 36 36 36 36 36 36 36 36 32 36 36 36 36 32 32 32 24 24 24 24 24 24 24 20 20 12 12 12 8 8 8 8 8 12 12 12 12 12 12 20 20 20 24 24 32 36 36 36 36 32 24 24 24 24 44 56 64 64 68
8 8 8 8 12 12 12 12 20 20 20 24 24 20 20 20 20 20 20 24 32 36 36 36 44 36 36 36 36 36 36 32 32 24 24 24 24 24 24 32 32 32 32 32 32 32 32 32 32 32 32 24 24 24 24 24 24 24 24 24 24 24 24 24 20 20 12 12 12 8 8 8 8 8 8 8 12 12 12 12 12 12 12 20 20 20 20 24 32 36 44 44 36 32 32 24 32 44 64 68 76 80 76
8 8 8 8 8 8 12 12 12 20 20 20 20 20 20 20 20 20 20 20 20 20 20 24 32 32 24 24 20 20 20 20 20 20 20 20 20 20 20 20 24 24 24 24 24 24 24 24 24 20 20 20 20 20 20 20 20 20 20 20 20 20 20 20 12 12 8 8 8 8 8 8 8 8 8 8 12 12 12 12 12 12 12 20 20 20 20 24 32 36 44 36 36 36 32 32 36 64 68 80 88 80 80
8 8 8 8 8 8 8 12 12 12 20 20 20 24 20 20 20 20 20 20 20 20 20 20 20 24 20 20 12 12 20 20 20 20 20 12 12 12 12 12 20 20 20 20 20 20 20 20 20 20 20 12 12 12 20 20 20 20 20 20 20 20 12 12 8 8 0 0 0 8 8 8 8 8 8 12 12 12 12 12 12 12 20 20 20 20 24 32 32 36 36 36 36 36 36 44 56 68 80 88 88 80 68
24 8 8 8 8 8 8 8 8 12 12 20 20 20 24 24 24 24 20 20 20 20 20 20 20 20 20 20 20 20 20 20 20 20 12 12 12 12 12 12 12 20 20 20 12 20 20 12 12 12 12 12 12 12 12 12 20 20 20 20 12 12 8 8 0 0 0 0 8 8 8 8 12 12 12 12 12 12 12 12 12 20 20 24 32 32 32 32 36 44 44 36 36 44 48 64 76 68 76 80 80 80 68
44 20 12 8 8 8 8 8 8 8 12 12 20 20 20 20 24 24 24 24 20 20 20 20 24 24 20 20 24 24 20 20 20 20 12 12 12 12 12 20 20 20 20 12 12 12 12 12 12 12 12 12 12 12 12 12 20 20 20 12 8 8 0 0 0 0 8 8 8 8 8 8 12 8 8 8 12 12 12 12 12 20 24 32 36 36 36 36 44 44 44 36 36 36 56 68 68 68 76 76 80 92 88
36 44 32 20 12 8 8 8 8 8 8 12 12 20 20 20 20 20 24 24 24 24 24 24 24 24 24 24 20 20 20 20 20 20 20 20 12 20 20 20 12 12 12 12 12 8 8 8 8 8 8 8 12 12 12 12 12 12 12 8 0 8 0 0 0 8 8 8 8 8 8 8 8 8 8 8 8 12 12 20 24 32 36 44 48 44 44 36 36 36 36 36 44 44 76 80 76 80 88 88 92 92 92
24 32 36 32 24 12 8 8 8 8 8 8 8 12 12 12 20 20 20 20 20 20 24 24 24 24 24 24 24 20 20 20 20 20 20 20 20 20 20 12 12 12 8 8 8 8 8 8 8 8 8 8 8 8 8 12 12 12 8 8 0 8 0 0 0 0 8 8 8 8 8 0 8 8 8 8 8 8 20 32 36 44 44 44 44 44 44 44 44 48 48 56 64 68 88 92 92 92 92 92 92 92 92
8 12 32 44 36 24 12 8 8 8 8 8 8 8 12 12 12 12 12 20 20 20 20 20 20 20 20 24 24 20 24 24 20 20 20 20 20 20 12 12 12 12 8 8 8 8 8 8 8 8 8 8 8 8 8 8 8 8 0 0 0 8 8 8 0 0 0 0 0 0 0 0 8 8 8 8 8 8 20 32 36 36 36 44 44 48 48 56 64 64 76 80 88 92 92 92 92 92 92 92 92 92 92
0 0 20 32 36 32 24 20 12 8 0 0 8 8 8 8 8 12 12 12 12 12 12 20 20 20 20 20 20 20 24 24 24 20 20 20 20 20 12 12 12 12 8 8 8 8 8 8 8 8 8 8 8 8 8 8 0 0 0 8 8 12 8 8 8 0 0 0 0 0 0 8 8 8 8 8 8 8 12 20 24 32 36 44 48 64 64 68 80 88 92 92 92 92 92 92 92 92 92 92 92 92 92
0 0 8 12 20 20 20 20 12 12 8 8 0 8 8 8 8 8 8 8 8 8 12 12 12 12 12 20 20 20 20 20 20 20 20 20 20 20 12 12 12 12 8 8 8 8 8 8 8 0 0 8 8 8 0 0 0 8 12 20 12 8 8 0 0 0 0 0 0 0 0 0 0 0 8 8 8 8 8 12 20 24 32 44 56 68 68 68 76 92 92 92 92 92 92 92 92 92 92 92 92 92 92
0 0 0 0 0 0 8 8 12 12 8 8 0 0 0 8 8 8 8 8 8 8 8 8 8 12 12 12 12 12 12 12 20 20 20 20 12 12 12 12 12 8 8 8 8 12 12 12 12 12 8 8 0 0 0 12 20 20 20 20 12 0 0 0 0 0 0 0 0 0 0 0 0 0 8 8 8 8 8 12 24 56 64 64 68 76 76 80 80 88 92 92 92 92 92 92 92 92 92 92 92 92 92
0 0 0 0 0 0 0 0 0 0 0 0 0 0 0 0 0 0 0 0 8 8 8 8 8 8 8 12 12 12 12 12 12 12 12 12 12 12 12 8 12 12 12 12 12 12 12 12 12 20 12 8 0 0 12 20 24 20 20 12 12 0 0 0 0 0 0 0 0 0 0 8 8 8 8 8 8 8 8 12 24 76 76 76 80 88 80 80 80 80 80 88 92 92 92 92 92 92 92 92 92 92 92
0 0 0 0 0 0 0 0 0 0 0 0 0 0 0 0 0 0 0 0 0 8 8 8 8 8 8 8 8 8 8 8 8 8 8 8 8 8 8 8 8 12 12 12 12 12 12 20 24 24 12 8 8 12 12 20 20 20 20 12 8 0 0 0 0 0 0 0 0 0 8 8 8 8 12 12 12 8 8 12 24 44 68 80 80 80 76 80 80 80 80 92 92 92 92 92 92 92 92 92 92 92 92
0 0 0 0 0 0 0 0 0 0 0 0 0 0 0 0 0 0 0 0 0 0 0 8 8 8 8 8 8 8 8 8 8 8 8 8 8 8 8 8 8 8 8 8 8 8 12 20 24 20 8 8 8 12 12 12 12 12 8 0 0 0 0 0 0 0 0 0 0 8 8 12 12 12 12 12 12 12 12 20 32 32 64 76 76 80 80 88 92 92 92 92 92 92 92 92 92 92 92 92 92 92 92
0 0 0 0 0 0 0 0 0 0 0 0 0 0 0 0 0 0 0 0 0 0 0 0 0 0 8 8 8 8 8 8 8 8 8 8 8 0 0 8 8 8 8 8 8 8 12 20 20 12 8 8 12 20 20 20 12 8 0 0 0 0 0 0 0 0 8 8 8 8 12 12 12 20 12 20 20 12 20 24 32 48 44 48 68 92 92 92 92 92 92 92 92 92 92 92 92 92 92 92 92 92 92
0 0 0 0 0 0 0 0 0 0 0 0 0 0 0 0 0 0 0 0 0 0 0 0 0 0 0 8 8 8 8 8 8 8 8 8 0 0 0 8 8 8 12 12 8 8 12 12 8 8 32 44 48 44 36 32 20 12 8 0 0 0 8 8 8 8 8 8 8 8 12 12 20 24 20 24 24 32 24 36 56 64 56 48 56 92 92 92 92 92 92 92 92 92 92 92 92 92 92 92 92 92 92
0 0 0 0 0 0 0 0 0 0 0 0 0 0 0 0 0 0 0 0 0 0 0 0 0 0 0 0 8 8 8 8 8 8 8 8 8 8 8 8 8 8 20 32 36 36 24 12 20 48 80 92 88 80 76 76 68 64 56 44 36 32 20 20 12 12 12 12 12 20 24 24 20 32 36 32 20 36 44 64 80 80 88 92 92 92 92 92 92 92 92 92 92 92 92 92 92 92 92 92 92 92 92
0 0 0 0 0 0 0 0 0 0 0 0 0 0 0 0 0 0 12 8 0 0 0 0 0 0 0 0 0 0 0 8 8 8 8 8 12 48 36 44 56 56 48 48 64 76 64 64 68 92 92 80 68 64 56 64 80 92 88 80 68 48 32 20 12 12 12 8 12 20 32 24 20 12 32 44 56 68 88 92 92 92 92 92 92 92 92 92 92 92 92 92 92 92 92 92 92 92 92 92 92 88 92
0 0 0 0 0 0 0 0 0 0 0 0 0 0 0 0 0 0 0 12 32 24 8 8 24 44 48 36 20 8 20 36 48 56 68 80 92 92 92 92 88 80 76 68 64 48 80 88 80 92 76 68 56 48 56 64 68 76 76 76 64 36 20 12 12 20 20 20 20 24 24 20 12 8 48 76 92 92 92 92 92 92 92 92 92 92 92 92 92 92 92 92 92 92 92 92 92 92 92 92 92 88 92
0 0 0 0 8 8 0 0 0 0 0 0 0 0 0 0 0 0 0 0 0 12 12 24 36 68 68 76 80 92 92 92 92 92 92 92 92 88 92 92 92 92 88 80 76 76 64 44 36 68 64 56 48 48 56 64 76 92 76 64 44 32 20 12 12 20 24 24 20 20 12 12 20 36 76 92 92 92 92 92 92 92 92 92 92 92 92 92 92 92 92 92 92 92 92 92 92 92 88 92 92 92 92
0 0 8 12 8 8 0 0 0 0 0 0 0 0 0 0 0 0 0 0 0 0 20 32 36 36 36 44 48 56 68 76 76 76 68 64 48 44 48 68 88 92 92 92 92 88 68 56 48 64 56 44 36 36 56 68 80 88 80 64 36 24 12 12 12 8 20 20 20 24 24 56 92 92 92 92 92 92 92 92 92 92 92 92 92 92 92 92 92 92 92 92 92 100 92 92 92 92 92 92 92 92 92
36 32 24 20 12 8 8 0 0 0 0 0 0 0 0 0 0 0 0 0 0 0 20 24 24 20 20 24 24 36 44 48 48 48 48 48 48 44 32 24 36 92 92 92 92 92 88 76 64 76 92 80 56 36 64 80 92 92 88 64 36 12 12 12 12 12 24 24 44 92 92 92 92 92 92 92 92 92 92 92 92 92 92 92 92 92 92 92 92 92 92 92 92 92 92 92 92 92 92 92 92 92 92